SWA555A LKPR-LRTR

Flight info

Callsign SWA555A
Flight time N/A
Altitude 31000
Route VOZ4B/30 VOZ DCT NELPA DCT PISAM DCT PESAT DCT BUG DCT TEGRI
Aircraft B737/M-SDE2E3FGHIRWXY/LB1

Departure

Time N/A
Airport Václav Havel Airport Prague (LKPR)

Arrival

Time 2026-04-24 19:42
Airport Timișoara Traian Vuia International Airport (LRTR)
Time Latitude Longitude Altitude Speed Heading
2026-04-24 18:54 48.23971 16.32462 31032 ft 463 kts 135°
2026-04-24 18:55 48.16912 16.42387 31029 ft 464 kts 135°
2026-04-24 18:56 48.12224 16.48956 31030 ft 464 kts 135°
2026-04-24 18:56 48.07501 16.55557 31030 ft 464 kts 135°
2026-04-24 18:57 48.02772 16.62147 31030 ft 465 kts 135°
2026-04-24 18:57 47.98035 16.68736 31031 ft 463 kts 135°
2026-04-24 18:58 47.93324 16.75265 31030 ft 462 kts 135°
2026-04-24 18:58 47.88614 16.81780 31030 ft 461 kts 135°
2026-04-24 18:59 47.83907 16.88272 31031 ft 461 kts 135°
2026-04-24 18:59 47.79218 16.94724 31031 ft 461 kts 135°
2026-04-24 19:00 47.74501 17.01197 31031 ft 461 kts 135°
2026-04-24 19:00 47.70274 17.08291 31034 ft 457 kts 118°
2026-04-24 19:01 47.67272 17.16535 31028 ft 455 kts 116°
2026-04-24 19:01 47.64175 17.24730 31030 ft 455 kts 116°
2026-04-24 19:02 47.61600 17.31526 31030 ft 456 kts 116°
2026-04-24 19:02 47.57980 17.41048 31030 ft 456 kts 116°
2026-04-24 19:03 47.54860 17.49233 31030 ft 456 kts 116°
2026-04-24 19:03 47.51730 17.57417 31030 ft 456 kts 116°
2026-04-24 19:04 47.48594 17.65592 31030 ft 456 kts 116°
2026-04-24 19:04 47.45452 17.73758 31029 ft 457 kts 116°
2026-04-24 19:05 47.42327 17.81853 31029 ft 457 kts 116°
2026-04-24 19:05 47.39175 17.89997 31030 ft 457 kts 116°
2026-04-24 19:06 47.36014 17.98135 31031 ft 456 kts 117°
2026-04-24 19:06 47.32860 18.06237 31034 ft 456 kts 116°
2026-04-24 19:07 47.29689 18.14353 31036 ft 456 kts 117°
2026-04-24 19:07 47.27054 18.21079 31036 ft 456 kts 117°
2026-04-24 19:08 47.23363 18.30475 31030 ft 456 kts 117°
2026-04-24 19:08 47.20184 18.38540 31029 ft 456 kts 117°
2026-04-24 19:09 47.17000 18.46594 31028 ft 455 kts 117°
2026-04-24 19:09 47.13811 18.54637 31027 ft 455 kts 117°
2026-04-24 19:10 47.10621 18.62659 31027 ft 455 kts 117°
2026-04-24 19:10 47.07427 18.70667 31026 ft 454 kts 117°
2026-04-24 19:11 47.04237 18.78640 31025 ft 454 kts 117°
2026-04-24 19:11 47.01033 18.86627 31024 ft 454 kts 117°
2026-04-24 19:12 46.97823 18.94605 31023 ft 454 kts 117°
2026-04-24 19:12 46.94604 19.02581 31021 ft 454 kts 117°
2026-04-24 19:13 46.91927 19.09197 30842 ft 453 kts 117°
2026-04-24 19:13 46.89790 19.14466 30545 ft 454 kts 118°
2026-04-24 19:13 46.88173 19.18446 30153 ft 454 kts 118°
2026-04-24 19:13 46.86566 19.22396 29770 ft 450 kts 117°
2026-04-24 19:14 46.84970 19.26317 29800 ft 447 kts 117°
2026-04-24 19:14 46.81800 19.34081 29790 ft 442 kts 117°
2026-04-24 19:14 46.80242 19.37888 29461 ft 434 kts 118°
2026-04-24 19:15 46.78717 19.41610 29050 ft 429 kts 118°
2026-04-24 19:15 46.77154 19.45422 28706 ft 440 kts 118°
2026-04-24 19:15 46.75578 19.49256 28373 ft 451 kts 118°
2026-04-24 19:15 46.73955 19.53201 28027 ft 455 kts 118°
2026-04-24 19:16 46.70683 19.61138 27094 ft 457 kts 118°
2026-04-24 19:16 46.69044 19.65105 26524 ft 458 kts 119°
2026-04-24 19:16 46.67409 19.69099 25947 ft 459 kts 117°
2026-04-24 19:17 46.66157 19.73356 25374 ft 458 kts 107°
2026-04-24 19:17 46.64868 19.77603 24792 ft 462 kts 116°
2026-04-24 19:17 46.63246 19.81635 24255 ft 460 kts 119°
2026-04-24 19:17 46.61598 19.85612 23678 ft 457 kts 119°
2026-04-24 19:18 46.59957 19.89567 23104 ft 454 kts 119°
2026-04-24 19:18 46.58331 19.93476 22529 ft 449 kts 119°
2026-04-24 19:18 46.56718 19.97351 21953 ft 445 kts 119°
2026-04-24 19:18 46.55117 20.01190 21378 ft 441 kts 119°
2026-04-24 19:19 46.53558 20.04926 20813 ft 438 kts 119°
2026-04-24 19:19 46.51981 20.08698 20236 ft 433 kts 119°
2026-04-24 19:19 46.50421 20.12426 19661 ft 429 kts 119°
2026-04-24 19:19 46.48876 20.16111 19085 ft 425 kts 119°
2026-04-24 19:20 46.47346 20.19758 18510 ft 421 kts 119°
2026-04-24 19:20 46.45828 20.23369 17936 ft 418 kts 119°
2026-04-24 19:20 46.44323 20.26946 17361 ft 414 kts 119°
2026-04-24 19:20 46.42826 20.30497 16787 ft 411 kts 119°
2026-04-24 19:21 46.41340 20.34019 16212 ft 408 kts 119°
2026-04-24 19:21 46.39864 20.37515 15637 ft 405 kts 119°
2026-04-24 19:21 46.38392 20.40993 15062 ft 403 kts 119°
2026-04-24 19:21 46.36931 20.44442 14484 ft 400 kts 119°
2026-04-24 19:22 46.35971 20.46708 14101 ft 398 kts 119°
2026-04-24 19:22 46.34059 20.51211 13334 ft 394 kts 119°
2026-04-24 19:22 46.32622 20.54591 13033 ft 394 kts 119°
2026-04-24 19:22 46.31185 20.57969 13024 ft 394 kts 119°
2026-04-24 19:23 46.29745 20.61350 13026 ft 394 kts 119°
2026-04-24 19:23 46.28301 20.64732 13028 ft 395 kts 119°
2026-04-24 19:23 46.26862 20.68100 13030 ft 394 kts 120°
2026-04-24 19:23 46.25421 20.71469 13027 ft 394 kts 120°
2026-04-24 19:24 46.23996 20.74797 13025 ft 394 kts 120°
2026-04-24 19:24 46.22536 20.78203 13027 ft 394 kts 120°
2026-04-24 19:24 46.21090 20.81572 13029 ft 394 kts 120°
2026-04-24 19:24 46.19665 20.84889 13027 ft 394 kts 120°
2026-04-24 19:25 46.18219 20.88250 13030 ft 394 kts 120°
2026-04-24 19:25 46.16773 20.91606 13029 ft 393 kts 120°
2026-04-24 19:25 46.15328 20.94956 13013 ft 393 kts 120°
2026-04-24 19:25 46.13883 20.98304 12730 ft 392 kts 120°
2026-04-24 19:26 46.12443 21.01634 12322 ft 388 kts 120°
2026-04-24 19:26 46.11033 21.04892 11924 ft 379 kts 120°
2026-04-24 19:26 46.09655 21.08072 11519 ft 370 kts 120°
2026-04-24 19:26 46.08308 21.11173 11116 ft 361 kts 120°
2026-04-24 19:27 46.07004 21.14174 10713 ft 353 kts 121°
2026-04-24 19:27 46.05714 21.17141 10311 ft 346 kts 121°
2026-04-24 19:27 46.04446 21.20053 9895 ft 339 kts 121°
2026-04-24 19:27 46.03200 21.22909 9402 ft 335 kts 121°
2026-04-24 19:28 46.02381 21.24787 9070 ft 333 kts 121°
2026-04-24 19:28 46.01157 21.27592 8570 ft 330 kts 121°
2026-04-24 19:28 45.99939 21.30379 8069 ft 327 kts 121°
2026-04-24 19:28 45.98740 21.33124 7565 ft 318 kts 121°
2026-04-24 19:29 45.96448 21.38360 6566 ft 303 kts 121°
2026-04-24 19:29 45.95334 21.40901 6063 ft 297 kts 121°
2026-04-24 19:29 45.94240 21.43393 5561 ft 293 kts 121°
2026-04-24 19:30 45.93163 21.45846 5055 ft 288 kts 122°
2026-04-24 19:30 45.92101 21.48263 4548 ft 284 kts 122°
2026-04-24 19:30 45.91048 21.50657 4049 ft 281 kts 122°
2026-04-24 19:30 45.90012 21.53012 3551 ft 278 kts 122°
2026-04-24 19:31 45.88986 21.55341 3096 ft 273 kts 122°
2026-04-24 19:31 45.88002 21.57573 3012 ft 255 kts 122°
2026-04-24 19:31 45.87097 21.59625 2989 ft 237 kts 122°
2026-04-24 19:31 45.86226 21.61599 2993 ft 231 kts 122°
2026-04-24 19:32 45.85365 21.63548 2998 ft 231 kts 122°
2026-04-24 19:32 45.84505 21.65493 3000 ft 231 kts 122°
2026-04-24 19:32 45.83646 21.67434 2998 ft 228 kts 122°
2026-04-24 19:32 45.82811 21.69323 2995 ft 222 kts 121°
2026-04-24 19:33 45.82111 21.71282 2999 ft 220 kts 113°
2026-04-24 19:33 45.81569 21.73335 3001 ft 220 kts 109°
2026-04-24 19:33 45.80834 21.75259 3014 ft 224 kts 123°
2026-04-24 19:33 45.80101 21.77327 3001 ft 242 kts 118°
2026-04-24 19:34 45.78864 21.78981 2990 ft 250 kts 151°
2026-04-24 19:34 45.77232 21.79316 2989 ft 233 kts 188°
2026-04-24 19:34 45.75909 21.78212 2988 ft 217 kts 228°
2026-04-24 19:34 45.75364 21.76306 3026 ft 201 kts 256°
2026-04-24 19:35 45.74882 21.74473 3003 ft 193 kts 247°
2026-04-24 19:35 45.74325 21.72767 2994 ft 185 kts 246°
2026-04-24 19:35 45.73985 21.71044 2981 ft 175 kts 263°
2026-04-24 19:35 45.73876 21.69351 2988 ft 167 kts 266°
2026-04-24 19:36 45.73771 21.67742 2985 ft 156 kts 265°
2026-04-24 19:36 45.73672 21.66242 2983 ft 150 kts 265°
2026-04-24 19:36 45.73608 21.64691 3056 ft 164 kts 270°
2026-04-24 19:36 45.73737 21.62987 3053 ft 178 kts 280°
2026-04-24 19:37 45.74051 21.61244 3084 ft 184 kts 287°
2026-04-24 19:37 45.74471 21.59501 3108 ft 186 kts 290°
2026-04-24 19:37 45.74915 21.57789 3070 ft 186 kts 291°
2026-04-24 19:37 45.75368 21.56060 3040 ft 185 kts 291°
2026-04-24 19:38 45.75816 21.54335 2927 ft 185 kts 291°
2026-04-24 19:38 45.76256 21.52609 2730 ft 184 kts 291°
2026-04-24 19:38 45.76689 21.50887 2503 ft 184 kts 290°
2026-04-24 19:38 45.77120 21.49160 2264 ft 181 kts 290°
2026-04-24 19:39 45.77527 21.47528 1999 ft 168 kts 290°
2026-04-24 19:39 45.77915 21.45977 1839 ft 163 kts 290°
2026-04-24 19:39 45.78293 21.44476 1625 ft 157 kts 291°
2026-04-24 19:39 45.78659 21.43026 1399 ft 152 kts 291°
2026-04-24 19:40 45.79012 21.41624 1229 ft 150 kts 291°
2026-04-24 19:40 45.79367 21.40219 1042 ft 150 kts 291°
2026-04-24 19:40 45.79720 21.38817 821 ft 149 kts 291°
2026-04-24 19:40 45.80065 21.37442 619 ft 144 kts 291°
2026-04-24 19:41 45.80401 21.36122 441 ft 136 kts 290°
2026-04-24 19:41 45.80646 21.35035 359 ft 99 kts 297°
2026-04-24 19:41 45.80860 21.34312 359 ft 69 kts 289°
2026-04-24 19:41 45.81017 21.33677 359 ft 67 kts 290°
2026-04-24 19:42 45.81180 21.33048 359 ft 67 kts 290°
2026-04-24 19:42 45.81336 21.32439 359 ft 51 kts 289°
2026-04-24 19:42 45.81387 21.32130 359 ft 22 kts 254°
2026-04-24 19:42 45.81299 21.32038 359 ft 6 kts 200°
2026-04-24 19:43 45.81252 21.32013 359 ft 11 kts 199°
2026-04-24 19:43 45.81216 21.32004 359 ft 0 kts 180°
2026-04-24 19:43 45.81192 21.31994 359 ft 13 kts 206°
2026-04-24 19:44 45.81113 21.31947 359 ft 4 kts 198°
2026-04-24 19:44 45.81112 21.31947 359 ft 0 kts 197°
2026-04-24 19:45 45.81111 21.31947 359 ft 0 kts 197°
2026-04-24 19:47 45.81111 21.31946 359 ft 0 kts 197°
2026-04-24 19:49 45.81110 21.31946 359 ft 0 kts 197°
2026-04-24 19:53 45.81109 21.31946 359 ft 0 kts 197°
2026-04-24 19:56 45.81109 21.31945 359 ft 0 kts 197°
2026-04-24 19:56 45.81108 21.31945 359 ft 0 kts 197°